EW0591 Weather Reports


Display with metric or nautical units.
time (UTC)temp
F
wind
direction
speed
MPH
gust
MPH
rain 1hr
in
rain 24hr
in
rain mn
in
humidity
%
barometer
mb
20260503211418 75 303 3.0 3.0 0.00 0.00 0.00 30 1019.1
20260503210913 76 274 4.0 6.0 0.00 0.00 0.00 33 1019.2
20260503210410 75 202 4.0 5.0 0.00 0.00 0.00 30 1019.4
20260503205905 76 170 5.0 6.0 0.00 0.00 0.00 32 1019.7
20260503205402 77 31 1.0 1.0 0.00 0.00 0.00 32 1019.5
20260503204858 75 189 0.0 1.0 0.00 0.00 0.00 33 1019.8
20260503204356 74 288 3.0 5.0 0.00 0.00 0.00 35 1019.8
20260503203853 75 236 1.0 1.0 0.00 0.00 0.00 32 1020.0
20260503203350 74 151 1.0 2.0 0.00 0.00 0.00 35 1019.8
20260503202847 74 283 0.0 1.0 0.00 0.00 0.00 36 1019.8
20260503202345 74 187 3.0 3.0 0.00 0.00 0.00 38 1020.0
20260503201843 73 219 1.0 2.0 0.00 0.00 0.00 34 1020.0
20260503201340 74 187 2.0 2.0 0.00 0.00 0.00 36 1020.0
20260503200838 73 328 1.0 2.0 0.00 0.00 0.00 37 1020.5
20260503200333 72 264 0.0 1.0 0.00 0.00 0.00 35 1020.2
20260503195831 73 218 2.0 3.0 0.00 0.00 0.00 39 1020.4
20260503195327 72 305 1.0 1.0 0.00 0.00 0.00 36 1020.0
20260503194824 71 268 2.0 2.0 0.00 0.00 0.00 37 1020.7
20260503194320 72 281 0.0 0.0 0.00 0.00 0.00 36 1020.6
20260503193816 72 225 2.0 3.0 0.00 0.00 0.00 41 1020.9
20260503193313 72 241 0.0 1.0 0.00 0.00 0.00 38 1020.9
20260503192809 71 216 3.0 3.0 0.00 0.00 0.00 37 1021.0
20260503192305 71 183 3.0 3.0 0.00 0.00 0.00 37 1021.1
20260503191800 71 197 5.0 7.0 0.00 0.00 0.00 41 1021.2
20260503191258 70 197 3.0 3.0 0.00 0.00 0.00 40 1021.1
20260503190754 71 207 5.0 7.0 0.00 0.00 0.00 40 1021.3
20260503190251 70 241 3.0 3.0 0.00 0.00 0.00 42 1021.3
20260503185748 70 217 3.0 5.0 0.00 0.00 0.00 46 1021.2
20260503185244 69 220 2.0 2.0 0.00 0.00 0.00 42 1021.5
20260503184738 69 234 0.0 0.0 0.00 0.00 0.00 41 1021.6
20260503184235 68 257 3.0 3.0 0.00 0.00 0.00 42 1021.7
20260503183732 68 178 2.0 2.0 0.00 0.00 0.00 41 1021.8
20260503183229 68 234 4.0 5.0 0.00 0.00 0.00 40 1021.7
20260503182727 68 244 5.0 6.0 0.00 0.00 0.00 43 1022.2
20260503182226 67 151 3.0 3.0 0.00 0.00 0.00 42 1022.1
20260503181722 67 223 2.0 2.0 0.00 0.00 0.00 43 1022.1
20260503181219 68 230 5.0 6.0 0.00 0.00 0.00 41 1022.5
20260503180715 66 136 2.0 3.0 0.00 0.00 0.00 42 1022.7
20260503180214 66 233 1.0 1.0 0.00 0.00 0.00 43 1022.3
20260503175710 66 179 5.0 6.0 0.00 0.00 0.00 42 1022.7
20260503175208 65 180 4.0 6.0 0.00 0.00 0.00 44 1022.9
20260503174704 65 239 2.0 3.0 0.00 0.00 0.00 45 1022.9
20260503174201 64 245 5.0 6.0 0.00 0.00 0.00 44 1023.0
20260503173656 65 199 5.0 6.0 0.00 0.00 0.00 46 1023.0
20260503173153 65 164 1.0 2.0 0.00 0.00 0.00 43 1023.0
20260503172650 64 209 3.0 3.0 0.00 0.00 0.00 47 1023.2
20260503172147 63 190 2.0 2.0 0.00 0.00 0.00 48 1023.2
20260503171643 63 200 4.0 5.0 0.00 0.00 0.00 48 1023.4
20260503171141 62 112 0.0 1.0 0.00 0.00 0.00 49 1023.2
20260503170638 62 181 4.0 5.0 0.00 0.00 0.00 49 1023.4
20260503170135 61 236 2.0 6.0 0.00 0.00 0.00 53 1023.4
20260503150526 51 226 1.0 1.0 0.00 0.00 0.00 69 1024.5
20260503131419 35 250 0.0 0.0 0.00 0.00 0.00 95 1025.1
20260503130916 34 250 0.0 0.0 0.00 0.00 0.00 95 1025.0
20260503130414 34 257 0.0 0.0 0.00 0.00 0.00 95 1025.0
20260503110817 36 227 0.0 0.0 0.00 0.00 0.00 95 1024.8
20260503110314 36 227 0.0 0.0 0.00 0.00 0.00 95 1024.8
20260503100240 38 244 0.0 0.0 0.00 0.00 0.00 94 1024.5
20260503090200 38 217 0.0 0.0 0.00 0.00 0.00 93 1024.4
20260503081630 39 252 0.0 0.0 0.00 0.00 0.00 92 1024.1
20260503081127 39 223 0.0 0.0 0.00 0.00 0.00 92 1024.0
20260503080623 40 221 0.0 0.0 0.00 0.00 0.00 92 1023.9
20260503080120 39 222 0.0 0.0 0.00 0.00 0.00 91 1023.9
20260503072557 41 254 0.0 0.0 0.00 0.00 0.00 89 1023.7
20260503072054 41 255 0.0 0.0 0.00 0.00 0.00 89 1023.8
20260503071550 41 272 0.0 0.0 0.00 0.00 0.00 89 1023.9
20260503071048 41 303 1.0 1.0 0.00 0.00 0.00 88 1023.8
20260503070544 42 246 0.0 0.0 0.00 0.00 0.00 88 1023.6
20260503054957 45 171 2.0 2.0 0.00 0.00 0.00 87 1023.3
20260503054453 45 198 0.0 1.0 0.00 0.00 0.00 87 1023.3
20260503053951 45 193 2.0 2.0 0.00 0.00 0.00 86 1023.2
20260503053449 45 221 0.0 0.0 0.00 0.00 0.00 86 1022.9
20260503052945 45 222 0.0 0.0 0.00 0.00 0.00 85 1023.0
20260503052443 46 213 0.0 0.0 0.00 0.00 0.00 85 1023.1
20260503051939 46 223 0.0 0.0 0.00 0.00 0.00 84 1023.1
20260503051435 46 225 0.0 0.0 0.00 0.00 0.00 82 1023.0
20260503050932 45 225 0.0 0.0 0.00 0.00 0.00 83 1022.9
20260503050428 45 225 0.0 0.0 0.00 0.00 0.00 83 1022.9
20260503045926 46 222 0.0 0.0 0.00 0.00 0.00 82 1022.9
20260503045423 46 222 0.0 0.0 0.00 0.00 0.00 81 1022.9
20260503044919 47 222 0.0 0.0 0.00 0.00 0.00 80 1022.8
20260503044416 47 222 0.0 0.0 0.00 0.00 0.00 79 1022.7
20260503043914 48 222 0.0 0.0 0.00 0.00 0.00 78 1022.7
20260503043410 47 217 0.0 0.0 0.00 0.00 0.00 78 1022.9
20260503042907 48 207 0.0 1.0 0.00 0.00 0.00 77 1022.6
20260503042403 48 227 0.0 0.0 0.00 0.00 0.00 77 1022.8
20260503041900 48 228 0.0 0.0 0.00 0.00 0.00 77 1022.6
20260503041357 48 216 0.0 0.0 0.00 0.00 0.00 76 1022.7
20260503040854 48 220 0.0 0.0 0.00 0.00 0.00 77 1022.6
20260503040352 48 232 0.0 0.0 0.00 0.00 0.00 77 1022.6
20260503035848 49 216 0.0 0.0 0.00 0.00 0.00 75 1022.6
20260503035346 50 214 0.0 0.0 0.00 0.00 0.00 75 1022.6
20260503034843 50 224 0.0 0.0 0.00 0.00 0.00 74 1022.3
20260503034340 52 120 0.0 0.0 0.00 0.00 0.00 71 1022.7
20260503033837 53 58 1.0 1.0 0.00 0.00 0.00 67 1022.3
20260503033335 52 103 1.0 1.0 0.00 0.00 0.00 68 1022.1
20260503032832 52 216 0.0 0.0 0.00 0.00 0.00 71 1022.1
20260503032331 53 226 0.0 0.0 0.00 0.00 0.00 70 1022.0
20260503031828 53 168 0.0 0.0 0.00 0.00 0.00 70 1022.1
20260503031326 55 224 0.0 0.0 0.00 0.00 0.00 71 1021.8
20260503030822 55 232 0.0 0.0 0.00 0.00 0.00 69 1021.9
20260503030319 56 221 0.0 0.0 0.00 0.00 0.00 67 1021.8
20260503025815 57 260 0.0 0.0 0.00 0.00 0.00 68 1021.8
20260503025313 58 260 0.0 0.0 0.00 0.00 0.00 66 1021.6
20260503024809 59 260 0.0 0.0 0.00 0.00 0.00 65 1021.7
20260503024306 60 279 0.0 0.0 0.00 0.00 0.00 56 1021.7
20260503023803 61 239 0.0 0.0 0.00 0.00 0.00 53 1021.7
20260503023300 62 256 0.0 0.0 0.00 0.00 0.00 49 1021.7
20260503022756 63 258 0.0 0.0 0.00 0.00 0.00 49 1021.6
20260503022251 64 256 0.0 0.0 0.00 0.00 0.00 47 1021.7
20260503021748 65 275 0.0 0.0 0.00 0.00 0.00 45 1021.5
20260503021244 66 263 0.0 0.0 0.00 0.00 0.00 46 1021.6
20260503020742 67 250 0.0 0.0 0.00 0.00 0.00 45 1021.5
20260503020240 67 249 0.0 0.0 0.00 0.00 0.00 44 1021.3
20260503015736 68 240 0.0 0.0 0.00 0.00 0.00 43 1021.6
20260503015232 69 255 0.0 0.0 0.00 0.00 0.00 43 1021.2
20260503014728 71 260 0.0 0.0 0.00 0.00 0.00 40 1021.3
20260503014227 72 250 0.0 0.0 0.00 0.00 0.00 38 1021.1
20260503013724 72 246 0.0 0.0 0.00 0.00 0.00 37 1021.2
20260503013221 71 242 0.0 0.0 0.00 0.00 0.00 35 1021.5
20260503012718 71 279 0.0 1.0 0.00 0.00 0.00 35 1021.3
20260503012215 71 267 0.0 0.0 0.00 0.00 0.00 36 1021.6
20260503011712 72 272 1.0 1.0 0.00 0.00 0.00 36 1021.6
20260503011209 72 285 0.0 0.0 0.00 0.00 0.00 31 1021.7
20260503010705 74 247 3.0 3.0 0.00 0.00 0.00 31 1021.8
20260503010202 74 292 1.0 1.0 0.00 0.00 0.00 29 1021.5
20260503005659 73 278 1.0 1.0 0.00 0.00 0.00 33 1021.7
20260503005156 73 250 0.0 0.0 0.00 0.00 0.00 37 1021.7
20260503004653 74 318 1.0 1.0 0.00 0.00 0.00 29 1021.7
20260503004151 74 324 0.0 0.0 0.00 0.00 0.00 30 1021.6
20260503003648 73 347 2.0 2.0 0.00 0.00 0.00 29 1021.7
20260503003145 73 340 3.0 3.0 0.00 0.00 0.00 32 1021.7
20260503002642 73 332 4.0 5.0 0.00 0.00 0.00 33 1022.0
20260503002138 74 349 5.0 5.0 0.00 0.00 0.00 32 1021.8
20260503001634 75 267 2.0 2.0 0.00 0.00 0.00 28 1021.6
20260503001131 76 284 2.0 2.0 0.00 0.00 0.00 32 1021.6
20260503000629 76 249 0.0 0.0 0.00 0.00 0.00 26 1021.9
20260503000126 75 214 2.0 2.0 0.00 0.00 0.00 26 1021.7
20260502235623 75 221 0.0 1.0 0.00 0.00 0.00 29 1021.8
20260502235121 76 192 2.0 3.0 0.00 0.00 0.00 29 1021.9
20260502234616 76 219 2.0 2.0 0.00 0.00 0.00 27 1021.8
20260502234114 77 233 0.0 1.0 0.00 0.00 0.00 30 1021.9
20260502233609 76 230 0.0 0.0 0.00 0.00 0.00 26 1022.1
20260502233107 76 124 0.0 1.0 0.00 0.00 0.00 29 1022.1
20260502232603 77 257 0.0 0.0 0.00 0.00 0.00 27 1021.9
20260502232100 76 298 1.0 1.0 0.00 0.00 0.00 28 1022.1
20260502231557 75 304 2.0 3.0 0.00 0.00 0.00 27 1022.2
20260502231055 76 7 0.0 1.0 0.00 0.00 0.00 31 1022.5
20260502230553 76 317 2.0 3.0 0.00 0.00 0.00 25 1022.6
20260502230051 76 292 2.0 2.0 0.00 0.00 0.00 28 1022.5
20260502225546 75 305 2.0 2.0 0.00 0.00 0.00 27 1022.5
20260502225044 75 245 0.0 1.0 0.00 0.00 0.00 28 1022.5
20260502224540 75 289 1.0 1.0 0.00 0.00 0.00 30 1022.7
20260502224037 75 334 5.0 6.0 0.00 0.00 0.00 27 1022.5
20260502223535 76 154 4.0 5.0 0.00 0.00 0.00 28 1022.7
20260502223033 75 245 0.0 0.0 0.00 0.00 0.00 27 1022.9
20260502222530 75 235 3.0 5.0 0.00 0.00 0.00 27 1022.9
20260502222026 74 23 1.0 1.0 0.00 0.00 0.00 26 1022.9
20260502221522 74 166 2.0 2.0 0.00 0.00 0.00 28 1023.0
20260502221019 74 323 0.0 1.0 0.00 0.00 0.00 29 1023.1
20260502220515 73 232 0.0 0.0 0.00 0.00 0.00 30 1023.1
20260502220012 71 336 2.0 3.0 0.00 0.00 0.00 34 1023.3
20260502215509 71 328 4.0 5.0 0.00 0.00 0.00 34 1023.4
20260502215006 70 339 4.0 5.0 0.00 0.00 0.00 32 1023.4
20260502214503 70 322 7.0 7.0 0.00 0.00 0.00 34 1023.8
20260502214000 70 342 3.0 3.0 0.00 0.00 0.00 35 1023.4
20260502213456 70 317 3.0 3.0 0.00 0.00 0.00 37 1023.6
20260502212955 70 342 2.0 3.0 0.00 0.00 0.00 37 1023.4
20260502212453 70 328 3.0 3.0 0.00 0.00 0.00 33 1023.7
20260502211950 70 319 2.0 2.0 0.00 0.00 0.00 37 1023.4